User: anonymous   Login
Location: Arlington
(40.6323°N, 74.1651°W)
Time: 10:45:31
(UTC+00:00)
Language:

GPS 2-04 Rocket1 - Orbit

View from above orbital plane
View from above orbital plane
View from above satellite
View from above satellite

Ground track
Ground track

The orbit data is extracted from the following two-line orbital elements,

1 20303U 89085B   20022.88660931  .00000794  00000-0  27779-4 0  9991
2 20303  35.6228 210.9924 0096685 312.6968  46.5648 15.26878947645647
Epoch (UTC): 22 January 2020 21:16:43
Eccentricity: 0.0096685
inclination: 35.6228°
perigee height: 419 km
apogee height: 551 km
right ascension of ascending node: 210.9924°
argument of perigee: 312.6968°
revolutions per day: 15.26878947
mean anomaly at epoch: 46.5648°
orbit number at epoch: 64564

The dashed part of the orbit path shows where the satellite is in the earth's shadow,  

DLR